• en France
  • Liste des pays
  • À 7 jours
  • Température de l'eau
  • Carte satellitaire
  • Carte météo
  • Widgets météo
  • user-avatar
    Se connecter

    Météo par heure à Miszkolc

    Ce jour, 18 Juillet, Mercredi

    Heure Température Précipitation Vent Pression Humidité
    00:00 +19°C° 0,4 mm 2 m/s 741 mmHg 88%
    01:00 +19°C° 0 mm 2 m/s 741 mmHg 89%
    02:00 +18°C° 0,3 mm 2 m/s 741 mmHg 90%
    03:00 +18°C° 0,3 mm 2 m/s 741 mmHg 91%
    04:00 +19°C° 0,3 mm 1 m/s 741 mmHg 92%
    05:00 +20°C° 0,5 mm 1 m/s 741 mmHg 90%
    06:00 +20°C° 0,5 mm 1 m/s 741 mmHg 88%
    07:00 +21°C° 0,5 mm 1 m/s 741 mmHg 86%
    08:00 +21°C° 0,3 mm 2 m/s 741 mmHg 84%
    09:00 +21°C° 0,3 mm 2 m/s 741 mmHg 81%
    10:00 +23°C° 0,3 mm 2 m/s 741 mmHg 79%
    11:00 +24°C° 0,3 mm 3 m/s 741 mmHg 76%
    12:00 +23°C° 0,3 mm 4 m/s 741 mmHg 73%
    13:00 +25°C° 0,3 mm 4 m/s 741 mmHg 71%
    14:00 +25°C° 0,1 mm 4 m/s 741 mmHg 69%
    15:00 +25°C° 0,1 mm 4 m/s 741 mmHg 68%
    16:00 +25°C° 0,1 mm 4 m/s 741 mmHg 67%
    17:00 +24°C° 0,1 mm 3 m/s 741 mmHg 71%
    18:00 +22°C° 0,1 mm 3 m/s 741 mmHg 75%
    19:00 +23°C° 0,1 mm 2 m/s 741 mmHg 79%
    20:00 +21°C° 0,2 mm 2 m/s 741 mmHg 82%
    21:00 +20°C° 0,2 mm 2 m/s 741 mmHg 85%
    22:00 +19°C° 0,2 mm 2 m/s 741 mmHg 88%
    23:00 +19°C° 0,4 mm 2 m/s 742 mmHg 89%

    Demain, 19 Juillet, Jeudi

    Heure Température Précipitation Vent Pression Humidité
    00:00 +19°C° 0,4 mm 2 m/s 742 mmHg 91%
    01:00 +18°C° 0,4 mm 2 m/s 742 mmHg 92%
    02:00 +18°C° 0,1 mm 2 m/s 742 mmHg 93%
    03:00 +18°C° 0,1 mm 2 m/s 742 mmHg 93%
    04:00 +18°C° 0,1 mm 2 m/s 742 mmHg 94%
    05:00 +20°C° 0 mm 2 m/s 743 mmHg 89%
    06:00 +21°C° 0 mm 2 m/s 743 mmHg 85%
    07:00 +24°C° 0 mm 2 m/s 743 mmHg 81%
    08:00 +25°C° 0,1 mm 3 m/s 743 mmHg 74%
    09:00 +26°C° 0,1 mm 3 m/s 744 mmHg 67%
    10:00 +28°C° 0,1 mm 3 m/s 744 mmHg 61%
    11:00 +28°C° 0,9 mm 3 m/s 744 mmHg 61%
    12:00 +29°C° 0,9 mm 3 m/s 744 mmHg 61%
    13:00 +29°C° 0,9 mm 3 m/s 744 mmHg 61%
    14:00 +29°C° 0,9 mm 3 m/s 744 mmHg 62%
    15:00 +28°C° 0,9 mm 3 m/s 744 mmHg 63%
    16:00 +28°C° 0,9 mm 3 m/s 744 mmHg 64%
    17:00 +27°C° 0,4 mm 2 m/s 744 mmHg 69%
    18:00 +25°C° 0,4 mm 2 m/s 744 mmHg 74%
    19:00 +24°C° 0,4 mm 2 m/s 744 mmHg 79%
    20:00 +23°C° 0,3 mm 1 m/s 745 mmHg 81%
    21:00 +22°C° 0,3 mm 1 m/s 745 mmHg 83%
    22:00 +21°C° 0,3 mm 1 m/s 745 mmHg 85%
    23:00 +21°C° 0 mm 1 m/s 745 mmHg 85%

    Après-demain, 20 Juillet, Vendredi

    Heure Température Précipitation Vent Pression Humidité
    00:00 +21°C° 0 mm 1 m/s 745 mmHg 85%
    01:00 +21°C° 0 mm 1 m/s 745 mmHg 85%
    02:00 +21°C° 0 mm 1 m/s 745 mmHg 86%
    03:00 +21°C° 0 mm 1 m/s 745 mmHg 86%
    04:00 +20°C° 0 mm 1 m/s 745 mmHg 87%
    05:00 +21°C° 0,2 mm 1 m/s 745 mmHg 85%
    06:00 +22°C° 0,2 mm 1 m/s 745 mmHg 84%
    07:00 +22°C° 0,2 mm 1 m/s 746 mmHg 83%
    08:00 +23°C° 0,2 mm 1 m/s 746 mmHg 80%
    09:00 +24°C° 0,2 mm 1 m/s 746 mmHg 76%
    10:00 +24°C° 0,2 mm 1 m/s 746 mmHg 73%
    11:00 +26°C° 0,4 mm 1 m/s 746 mmHg 68%
    12:00 +27°C° 0,4 mm 1 m/s 746 mmHg 62%
    13:00 +29°C° 0,4 mm 1 m/s 745 mmHg 57%
    14:00 +29°C° 0,5 mm 1 m/s 745 mmHg 57%
    15:00 +29°C° 0,5 mm 1 m/s 745 mmHg 57%
    16:00 +29°C° 0,5 mm 1 m/s 745 mmHg 56%
    17:00 +27°C° 0,2 mm 1 m/s 745 mmHg 62%
    18:00 +26°C° 0,2 mm 1 m/s 745 mmHg 67%
    19:00 +25°C° 0,2 mm 1 m/s 745 mmHg 72%
    20:00 +24°C° 0,1 mm 1 m/s 745 mmHg 75%
    21:00 +23°C° 0,1 mm 1 m/s 745 mmHg 78%
    22:00 +22°C° 0,1 mm 1 m/s 746 mmHg 81%
    23:00 +21°C° 0 mm 1 m/s 745 mmHg 82%

    21 Juillet, Samedi

    Heure Température Précipitation Vent Pression Humidité
    00:00 +21°C° 0 mm 1 m/s 745 mmHg 84%
    01:00 +20°C° 0 mm 1 m/s 745 mmHg 85%
    02:00 +20°C° 0 mm 1 m/s 745 mmHg 86%
    03:00 +20°C° 0 mm 1 m/s 745 mmHg 87%
    04:00 +19°C° 0 mm 1 m/s 745 mmHg 88%
    05:00 +21°C° 0 mm 1 m/s 745 mmHg 83%
    06:00 +22°C° 0 mm 1 m/s 745 mmHg 78%
    07:00 +24°C° 0 mm 1 m/s 745 mmHg 73%
    08:00 +25°C° 0 mm 1 m/s 745 mmHg 68%
    09:00 +27°C° 0 mm 1 m/s 745 mmHg 62%
    10:00 +28°C° 0 mm 2 m/s 745 mmHg 57%
    11:00 +29°C° 0,2 mm 2 m/s 745 mmHg 54%
    12:00 +30°C° 0,2 mm 2 m/s 744 mmHg 52%
    13:00 +31°C° 0,2 mm 2 m/s 744 mmHg 49%
    14:00 +31°C° 0 mm 2 m/s 744 mmHg 48%
    15:00 +31°C° 0 mm 2 m/s 744 mmHg 48%
    16:00 +31°C° 0 mm 2 m/s 743 mmHg 47%
    17:00 +30°C° 0 mm 1 m/s 743 mmHg 52%
    18:00 +28°C° 0 mm 1 m/s 743 mmHg 58%
    19:00 +27°C° 0 mm 1 m/s 743 mmHg 63%
    20:00 +26°C° 0,2 mm 1 m/s 743 mmHg 66%
    21:00 +25°C° 0,2 mm 1 m/s 743 mmHg 70%
    22:00 +23°C° 0,2 mm 1 m/s 743 mmHg 73%
    23:00 +23°C° 1,6 mm 1 m/s 743 mmHg 78%

    22 Juillet, Dimanche

    Heure Température Précipitation Vent Pression Humidité
    00:00 +22°C° 1,6 mm 1 m/s 743 mmHg 84%
    01:00 +21°C° 1,6 mm 1 m/s 743 mmHg 89%
    02:00 +21°C° 1,1 mm 1 m/s 743 mmHg 90%
    03:00 +21°C° 1,1 mm 1 m/s 743 mmHg 91%
    04:00 +21°C° 1,1 mm 1 m/s 743 mmHg 92%
    05:00 +21°C° 0,1 mm 1 m/s 743 mmHg 90%
    06:00 +22°C° 0,1 mm 1 m/s 743 mmHg 88%
    07:00 +23°C° 0,1 mm 2 m/s 743 mmHg 85%
    08:00 +25°C° 0,2 mm 2 m/s 742 mmHg 78%
    09:00 +27°C° 0,2 mm 2 m/s 742 mmHg 71%
    10:00 +28°C° 0,2 mm 3 m/s 742 mmHg 64%
    11:00 +29°C° 1,6 mm 2 m/s 742 mmHg 62%
    12:00 +29°C° 1,6 mm 2 m/s 742 mmHg 61%
    13:00 +30°C° 1,6 mm 2 m/s 741 mmHg 60%
    14:00 +30°C° 0,9 mm 2 m/s 741 mmHg 59%
    15:00 +30°C° 0,9 mm 2 m/s 741 mmHg 58%
    16:00 +30°C° 0,9 mm 1 m/s 741 mmHg 57%
    17:00 +29°C° 0,6 mm 2 m/s 741 mmHg 62%
    18:00 +27°C° 0,6 mm 2 m/s 741 mmHg 67%
    19:00 +26°C° 0,6 mm 3 m/s 741 mmHg 72%
    20:00 +24°C° 1,5 mm 3 m/s 741 mmHg 77%
    21:00 +22°C° 1,5 mm 3 m/s 741 mmHg 83%
    22:00 +21°C° 1,5 mm 3 m/s 742 mmHg 88%
    23:00 +21°C° 0,2 mm 3 m/s 742 mmHg 87%

    23 Juillet, Lundi

    Heure Température Précipitation Vent Pression Humidité
    00:00 +21°C° 0,2 mm 3 m/s 742 mmHg 86%
    01:00 +20°C° 0,2 mm 3 m/s 742 mmHg 85%
    02:00 +20°C° 0,4 mm 3 m/s 742 mmHg 85%
    03:00 +20°C° 0,4 mm 3 m/s 742 mmHg 85%
    04:00 +19°C° 0,4 mm 4 m/s 742 mmHg 84%
    05:00 +21°C° 0 mm 4 m/s 742 mmHg 80%
    06:00 +22°C° 0 mm 5 m/s 743 mmHg 76%
    07:00 +23°C° 0 mm 6 m/s 743 mmHg 72%
    08:00 +24°C° 0 mm 6 m/s 743 mmHg 66%
    09:00 +27°C° 0 mm 7 m/s 743 mmHg 59%
    10:00 +28°C° 0 mm 7 m/s 743 mmHg 52%
    11:00 +29°C° 0 mm 7 m/s 743 mmHg 50%
    12:00 +30°C° 0 mm 6 m/s 743 mmHg 48%
    13:00 +30°C° 0 mm 6 m/s 743 mmHg 45%
    14:00 +30°C° 0 mm 6 m/s 743 mmHg 47%
    15:00 +30°C° 0 mm 6 m/s 743 mmHg 48%
    16:00 +29°C° 0 mm 6 m/s 743 mmHg 49%
    17:00 +28°C° 0 mm 6 m/s 743 mmHg 54%
    18:00 +26°C° 0 mm 5 m/s 743 mmHg 58%
    19:00 +25°C° 0 mm 5 m/s 744 mmHg 62%
    20:00 +23°C° 0 mm 5 m/s 744 mmHg 64%
    21:00 +22°C° 0 mm 5 m/s 744 mmHg 66%
    22:00 +21°C° 0 mm 4 m/s 745 mmHg 68%
    23:00 +20°C° 0 mm 4 m/s 745 mmHg 70%
    Voir plus